Tracking 19720 objects as of 26-Jun-2019
HD Live streaming from Space Station
objects crossing your sky now

FENGYUN 1C DEB

Track FENGYUN 1C DEB now!
10-day predictions


NORAD ID: 31768
Int'l Code: 1999-025CFT
Perigee: 737.5 km
Apogee: 813.5 km
Inclination: 99.1 °
Period: 100.2 minutes
Semi major axis: 7146 km
RCS: 0.011 m2 (small)
Launch date: May 10, 1999
Source: People's Republic of China (PRC)
Launch site: Taiyaun Space Center, China (TSC)

Note: This is SATELLITE DEBRIS
aabbcc
Your satellite tracking list
Your tracking list is empty




NASA's NSSDC Master Catalog

Two Line Element Set (TLE):
1 31768U 99025CFT 19175.48091613 +.00000615 +00000-0 +22029-3 0  9995
2 31768 099.0637 053.7850 0053111 185.1134 298.6062 14.37020695627031
Source of the keplerian elements: AFSPC